ANS5619 SPQU-SPZO

Flight info

Callsign ANS5619
Flight time 0h 34m
Altitude 33000
Route KOLKA UV15 LITOT
Aircraft MD83/M-SDFGIRWY/S

Departure

Time 2026-04-29 21:01
Airport Rodríguez Ballón International Airport (SPQU)

Arrival

Time 2026-04-29 21:36
Airport Alejandro Velasco Astete International Airport (SPZO)
Time Latitude Longitude Altitude Speed Heading
2026-04-29 20:52 -16.34385 -71.56779 8345 ft 0 kts 219°
2026-04-29 20:52 -16.34374 -71.56771 8347 ft 4 kts 206°
2026-04-29 20:52 -16.34356 -71.56767 8345 ft 4 kts 149°
2026-04-29 20:52 -16.34348 -71.56781 8347 ft 4 kts 94°
2026-04-29 20:53 -16.34347 -71.56795 8345 ft 0 kts 84°
2026-04-29 20:55 -16.34347 -71.56789 8345 ft 3 kts 88°
2026-04-29 20:55 -16.34349 -71.56754 8349 ft 7 kts 92°
2026-04-29 20:56 -16.34352 -71.56686 8349 ft 11 kts 92°
2026-04-29 20:56 -16.34354 -71.56624 8351 ft 14 kts 92°
2026-04-29 20:56 -16.34363 -71.56470 8347 ft 18 kts 94°
2026-04-29 20:56 -16.34368 -71.56387 8353 ft 16 kts 93°
2026-04-29 20:57 -16.34374 -71.56284 8363 ft 12 kts 93°
2026-04-29 20:57 -16.34377 -71.56205 8370 ft 9 kts 92°
2026-04-29 20:57 -16.34380 -71.56147 8372 ft 7 kts 92°
2026-04-29 20:57 -16.34382 -71.56095 8379 ft 7 kts 87°
2026-04-29 20:58 -16.34361 -71.56042 8384 ft 9 kts 57°
2026-04-29 20:58 -16.34321 -71.55983 8389 ft 11 kts 55°
2026-04-29 20:58 -16.34277 -71.55918 8395 ft 11 kts 54°
2026-04-29 20:58 -16.34241 -71.55854 8403 ft 9 kts 59°
2026-04-29 20:59 -16.34213 -71.55803 8410 ft 8 kts 60°
2026-04-29 20:59 -16.34171 -71.55736 8413 ft 15 kts 39°
2026-04-29 20:59 -16.34128 -71.55763 8413 ft 1 kts 274°
2026-04-29 20:59 -16.34128 -71.55765 8413 ft 0 kts 274°
2026-04-29 21:00 -16.34128 -71.55767 8413 ft 2 kts 274°
2026-04-29 21:00 -16.34118 -71.55934 8413 ft 52 kts 272°
2026-04-29 21:00 -16.34089 -71.56503 8400 ft 106 kts 273°
2026-04-29 21:01 -16.34040 -71.57455 8348 ft 152 kts 272°
2026-04-29 21:01 -16.33997 -71.58647 8461 ft 176 kts 271°
2026-04-29 21:01 -16.34026 -71.59935 9043 ft 177 kts 266°
2026-04-29 21:01 -16.34073 -71.61242 9556 ft 189 kts 267°
2026-04-29 21:02 -16.34116 -71.62680 9707 ft 210 kts 268°
2026-04-29 21:02 -16.34175 -71.64290 9630 ft 237 kts 266°
2026-04-29 21:02 -16.34287 -71.66120 9522 ft 267 kts 265°
2026-04-29 21:02 -16.34480 -71.68127 9533 ft 290 kts 263°
2026-04-29 21:03 -16.34735 -71.70246 9948 ft 296 kts 263°
2026-04-29 21:03 -16.34938 -71.72422 10226 ft 311 kts 265°
2026-04-29 21:03 -16.35101 -71.74736 10379 ft 329 kts 266°
2026-04-29 21:03 -16.35241 -71.77173 10636 ft 339 kts 266°
2026-04-29 21:04 -16.35366 -71.79524 11828 ft 318 kts 266°
2026-04-29 21:04 -16.35486 -71.81883 12024 ft 335 kts 267°
2026-04-29 21:04 -16.35606 -71.84374 12131 ft 352 kts 267°
2026-04-29 21:04 -16.35731 -71.86966 12241 ft 367 kts 267°
2026-04-29 21:05 -16.35863 -71.89675 12393 ft 379 kts 267°
2026-04-29 21:05 -16.36003 -71.92433 12844 ft 383 kts 266°
2026-04-29 21:05 -16.36147 -71.95175 13374 ft 385 kts 266°
2026-04-29 21:05 -16.36297 -71.97982 13913 ft 387 kts 266°
2026-04-29 21:06 -16.36450 -72.00780 14421 ft 389 kts 266°
2026-04-29 21:06 -16.36608 -72.03602 14942 ft 390 kts 267°
2026-04-29 21:06 -16.36696 -72.06426 15488 ft 392 kts 275°
2026-04-29 21:06 -16.36044 -72.09168 16040 ft 393 kts 296°
2026-04-29 21:07 -16.34496 -72.11496 16599 ft 394 kts 316°
2026-04-29 21:07 -16.32250 -72.13145 17118 ft 400 kts 335°
2026-04-29 21:07 -16.29568 -72.13930 17658 ft 405 kts 354°
2026-04-29 21:07 -16.26745 -72.13754 18232 ft 410 kts 13°
2026-04-29 21:08 -16.24116 -72.12658 18678 ft 416 kts 28°
2026-04-29 21:08 -16.21580 -72.11196 19150 ft 419 kts 25°
2026-04-29 21:08 -16.18892 -72.09992 19594 ft 422 kts 18°
2026-04-29 21:08 -16.16080 -72.09098 20082 ft 424 kts 13°
2026-04-29 21:09 -16.13199 -72.08384 20565 ft 426 kts 11°
2026-04-29 21:09 -16.10281 -72.07763 21002 ft 430 kts
2026-04-29 21:09 -16.07326 -72.07191 21431 ft 434 kts
2026-04-29 21:09 -16.04347 -72.06632 21892 ft 437 kts
2026-04-29 21:10 -16.01350 -72.06058 22345 ft 439 kts
2026-04-29 21:10 -15.98335 -72.05465 22712 ft 444 kts
2026-04-29 21:10 -15.95281 -72.04863 22895 ft 450 kts
2026-04-29 21:10 -15.92207 -72.04249 22987 ft 445 kts 10°
2026-04-29 21:11 -15.89247 -72.03643 23019 ft 422 kts 10°
2026-04-29 21:11 -15.86443 -72.03063 23048 ft 411 kts 10°
2026-04-29 21:11 -15.83640 -72.02489 23070 ft 412 kts
2026-04-29 21:11 -15.80807 -72.01918 23071 ft 416 kts
2026-04-29 21:12 -15.77958 -72.01345 23074 ft 418 kts 10°
2026-04-29 21:12 -15.75095 -72.00765 23076 ft 420 kts
2026-04-29 21:12 -15.72225 -72.00185 23084 ft 421 kts
2026-04-29 21:12 -15.69357 -71.99605 23089 ft 419 kts
2026-04-29 21:13 -15.66496 -71.99020 23087 ft 418 kts
2026-04-29 21:13 -15.63645 -71.98437 23078 ft 417 kts 10°
2026-04-29 21:13 -15.60791 -71.97861 23089 ft 417 kts
2026-04-29 21:13 -15.57939 -71.97296 23082 ft 418 kts
2026-04-29 21:14 -15.55086 -71.96730 23084 ft 417 kts
2026-04-29 21:14 -15.52237 -71.96155 23067 ft 417 kts
2026-04-29 21:14 -15.49384 -71.95583 23067 ft 417 kts 10°
2026-04-29 21:14 -15.46528 -71.95002 23061 ft 417 kts 10°
2026-04-29 21:15 -15.43712 -71.94428 23063 ft 417 kts 10°
2026-04-29 21:15 -15.40826 -71.93843 23058 ft 417 kts 10°
2026-04-29 21:15 -15.38022 -71.93280 23055 ft 417 kts 10°
2026-04-29 21:15 -15.35167 -71.92698 23053 ft 417 kts 10°
2026-04-29 21:16 -15.32318 -71.92126 23049 ft 417 kts 10°
2026-04-29 21:16 -15.29469 -71.91561 23054 ft 418 kts 10°
2026-04-29 21:16 -15.26605 -71.90987 23052 ft 419 kts 10°
2026-04-29 21:16 -15.23740 -71.90405 23043 ft 419 kts 10°
2026-04-29 21:17 -15.20882 -71.89828 23043 ft 418 kts 10°
2026-04-29 21:17 -15.18027 -71.89255 23040 ft 418 kts 10°
2026-04-29 21:17 -15.15173 -71.88675 23037 ft 418 kts 10°
2026-04-29 21:17 -15.12323 -71.88098 23030 ft 418 kts 10°
2026-04-29 21:18 -15.09466 -71.87524 23026 ft 419 kts 10°
2026-04-29 21:18 -15.06606 -71.86950 23021 ft 419 kts 10°
2026-04-29 21:18 -15.03741 -71.86372 23019 ft 419 kts 10°
2026-04-29 21:18 -15.00880 -71.85797 23015 ft 419 kts 10°
2026-04-29 21:19 -14.98018 -71.85225 23012 ft 419 kts 10°
2026-04-29 21:19 -14.95151 -71.84643 23007 ft 420 kts 11°
2026-04-29 21:19 -14.92281 -71.84069 23006 ft 420 kts 10°
2026-04-29 21:19 -14.89408 -71.83498 23002 ft 421 kts 10°
2026-04-29 21:20 -14.86522 -71.82921 22997 ft 420 kts 11°
2026-04-29 21:20 -14.83665 -71.82347 22999 ft 419 kts 11°
2026-04-29 21:20 -14.80806 -71.81772 22989 ft 418 kts 11°
2026-04-29 21:20 -14.77955 -71.81189 22993 ft 418 kts 11°
2026-04-29 21:21 -14.75102 -71.80612 22987 ft 418 kts 11°
2026-04-29 21:21 -14.72251 -71.80046 22988 ft 418 kts 11°
2026-04-29 21:21 -14.69394 -71.79480 22989 ft 417 kts 11°
2026-04-29 21:21 -14.66574 -71.78919 22979 ft 417 kts 11°
2026-04-29 21:22 -14.63722 -71.78348 22954 ft 418 kts 11°
2026-04-29 21:22 -14.60847 -71.77768 22764 ft 420 kts 11°
2026-04-29 21:22 -14.58000 -71.77195 22689 ft 416 kts 11°
2026-04-29 21:22 -14.55160 -71.76624 22651 ft 414 kts 11°
2026-04-29 21:23 -14.52330 -71.76057 22636 ft 414 kts 11°
2026-04-29 21:23 -14.49497 -71.75490 22633 ft 415 kts 11°
2026-04-29 21:23 -14.46660 -71.74922 22629 ft 415 kts 11°
2026-04-29 21:23 -14.43821 -71.74355 22621 ft 416 kts 11°
2026-04-29 21:24 -14.40976 -71.73785 22622 ft 416 kts 11°
2026-04-29 21:24 -14.38137 -71.73218 22622 ft 416 kts 11°
2026-04-29 21:24 -14.35330 -71.72656 22622 ft 416 kts 11°
2026-04-29 21:24 -14.32489 -71.72088 22621 ft 416 kts 11°
2026-04-29 21:25 -14.29651 -71.71521 22620 ft 415 kts 11°
2026-04-29 21:25 -14.26814 -71.70954 22617 ft 415 kts 11°
2026-04-29 21:25 -14.23976 -71.70387 22620 ft 416 kts 11°
2026-04-29 21:25 -14.21125 -71.69819 22616 ft 417 kts 11°
2026-04-29 21:26 -14.18282 -71.69251 22506 ft 417 kts 11°
2026-04-29 21:26 -14.15420 -71.68677 22068 ft 415 kts 11°
2026-04-29 21:26 -14.12639 -71.68122 21932 ft 399 kts 11°
2026-04-29 21:26 -14.09969 -71.67592 21841 ft 382 kts 11°
2026-04-29 21:27 -14.08263 -71.67254 21795 ft 371 kts 11°
2026-04-29 21:27 -14.04966 -71.66580 21692 ft 350 kts 12°
2026-04-29 21:27 -14.02619 -71.66027 21619 ft 344 kts 15°
2026-04-29 21:27 -14.00308 -71.65289 21559 ft 353 kts 20°
2026-04-29 21:28 -13.97989 -71.64373 21450 ft 360 kts 22°
2026-04-29 21:28 -13.95663 -71.63374 21182 ft 361 kts 23°
2026-04-29 21:28 -13.93373 -71.62396 20823 ft 361 kts 22°
2026-04-29 21:28 -13.91038 -71.61456 20415 ft 359 kts 20°
2026-04-29 21:29 -13.88669 -71.60659 19961 ft 356 kts 14°
2026-04-29 21:29 -13.86237 -71.60243 19498 ft 353 kts
2026-04-29 21:29 -13.83787 -71.60211 19010 ft 352 kts 356°
2026-04-29 21:29 -13.81351 -71.60432 18510 ft 351 kts 354°
2026-04-29 21:30 -13.78922 -71.60700 17932 ft 351 kts 354°
2026-04-29 21:30 -13.76483 -71.60936 17351 ft 351 kts 354°
2026-04-29 21:30 -13.74074 -71.61263 16813 ft 348 kts 346°
2026-04-29 21:30 -13.71810 -71.62092 16306 ft 344 kts 332°
2026-04-29 21:31 -13.69818 -71.63433 15808 ft 341 kts 321°
2026-04-29 21:31 -13.68060 -71.65064 15310 ft 339 kts 314°
2026-04-29 21:31 -13.66475 -71.66831 14976 ft 332 kts 311°
2026-04-29 21:31 -13.64978 -71.68580 14805 ft 319 kts 311°
2026-04-29 21:32 -13.63516 -71.70258 14621 ft 311 kts 312°
2026-04-29 21:32 -13.62072 -71.71911 14345 ft 310 kts 312°
2026-04-29 21:32 -13.60694 -71.73580 14069 ft 311 kts 307°
2026-04-29 21:32 -13.59529 -71.75435 13758 ft 306 kts 298°
2026-04-29 21:33 -13.58605 -71.77389 13413 ft 302 kts 294°
2026-04-29 21:33 -13.57823 -71.79367 13151 ft 292 kts 291°
2026-04-29 21:33 -13.57140 -71.81226 13096 ft 266 kts 291°
2026-04-29 21:33 -13.56520 -71.82943 12924 ft 248 kts 291°
2026-04-29 21:34 -13.55917 -71.84560 12714 ft 237 kts 293°
2026-04-29 21:34 -13.55274 -71.86060 12491 ft 222 kts 298°
2026-04-29 21:34 -13.54527 -71.87440 12208 ft 219 kts 299°
2026-04-29 21:34 -13.54031 -71.88854 11542 ft 202 kts 280°
2026-04-29 21:35 -13.53921 -71.90238 11137 ft 191 kts 272°
2026-04-29 21:35 -13.53835 -71.91592 10789 ft 187 kts 277°
2026-04-29 21:35 -13.53688 -71.92828 10741 ft 159 kts 277°
2026-04-29 21:35 -13.53587 -71.93746 10803 ft 86 kts 275°
2026-04-29 21:36 -13.53539 -71.94205 10815 ft 38 kts 276°
2026-04-29 21:36 -13.53576 -71.94341 10815 ft 11 kts 192°
2026-04-29 21:36 -13.53617 -71.94348 10816 ft 4 kts 188°
2026-04-29 21:36 -13.53632 -71.94351 10816 ft 0 kts 193°
2026-04-29 21:38 -13.53638 -71.94353 10817 ft 2 kts 199°
2026-04-29 21:38 -13.53655 -71.94370 10817 ft 5 kts 242°
2026-04-29 21:38 -13.53655 -71.94414 10817 ft 8 kts 275°
2026-04-29 21:38 -13.53679 -71.94452 10817 ft 6 kts 168°
2026-04-29 21:39 -13.53698 -71.94439 10817 ft 3 kts 143°
2026-04-29 21:39 -13.53728 -71.94417 10817 ft 3 kts 146°
2026-04-29 21:39 -13.53740 -71.94408 10817 ft 0 kts 146°